Theta_e
332 338 338 335 337 337 333 337 340 340 336 338 339 348 345 342 341 341 341 340 337 334 332 333 332 331 329 329 331 331 326 324 323 327 325 322 320 319 318 319 318 319 318 318
329 327 336 334 335 333 338 338 342 341 340 340 338 346 346 344 343 338 337 340 338 333 332 334 334 333 331 330 332 330 327 324 324 328 325 323 321 320 319 320 319 319 319 318
327 327 332 333 333 337 337 337 338 336 333 341 339 351 348 345 340 336 334 336 334 331 333 332 333 333 333 333 333 331 330 326 327 328 326 323 322 320 321 319 319 319 319 319
326 328 330 331 334 337 338 333 335 334 334 334 340 341 348 345 339 335 333 332 333 334 330 331 331 330 332 333 333 331 330 326 328 325 324 323 321 320 319 318 318 319 319 319
327 328 331 333 332 335 332 334 335 335 336 337 340 349 346 343 339 337 333 330 330 332 331 331 331 330 329 324 329 330 323 322 320 321 325 323 321 321 319 319 319 319 319 319
327 328 331 333 334 333 336 338 337 338 336 341 347 346 348 344 337 334 330 329 328 326 328 327 330 331 328 327 327 328 323 321 318 319 323 324 322 322 321 320 319 319 318 318
329 331 334 335 335 336 337 338 336 335 331 339 344 345 345 338 333 332 330 327 325 325 325 326 325 324 325 326 328 325 325 327 326 325 323 323 322 321 320 320 320 318 317 316
332 335 335 335 338 336 336 333 334 336 337 333 331 347 343 335 332 330 328 326 326 326 326 325 324 324 323 323 322 321 322 323 324 325 323 324 321 320 320 320 319 318 317 316
335 335 337 336 335 334 332 331 329 332 331 330 339 339 336 332 329 327 326 326 326 325 325 324 323 322 320 319 318 320 319 320 321 319 317 317 321 319 318 320 317 319 318 316
334 340 335 335 334 333 331 330 331 331 333 334 336 345 341 335 331 327 327 327 326 325 324 321 318 316 315 315 315 315 315 315 315 321 321 320 321 320 319 318 317 316 318 318
335 337 337 335 334 333 331 325 329 332 331 336 341 344 335 333 330 328 327 326 325 323 320 316 314 314 314 315 315 315 315 314 314 316 316 319 318 318 317 318 319 315 314 316
333 335 335 332 331 329 328 328 330 333 334 333 328 336 331 330 329 328 326 325 323 320 316 315 315 315 315 314 314 315 314 314 314 314 314 317 317 317 318 318 317 316 317 317
337 333 332 329 336 335 332 330 327 328 332 333 335 342 331 330 328 327 325 323 321 316 315 316 315 315 314 314 314 314 314 314 314 312 313 316 317 316 317 317 318 316 316 314
338 333 332 330 332 330 333 329 327 328 331 331 331 336 332 330 328 325 323 321 316 316 316 316 316 315 314 314 314 313 313 312 312 313 311 313 316 317 316 316 317 314 312 313
335 336 334 331 329 328 328 326 326 327 326 327 327 327 333 329 327 322 320 316 316 316 316 316 316 316 315 315 314 314 313 313 313 312 314 313 314 317 315 317 317 313 312 312
333 340 333 333 330 328 327 327 326 326 328 327 327 330 329 326 323 321 318 317 316 316 316 316 316 315 316 315 316 314 314 313 313 313 313 313 313 316 316 316 315 314 314 315
336 338 337 334 334 333 328 331 329 326 326 327 328 328 325 323 321 317 316 316 316 316 316 317 317 317 316 316 316 316 314 314 314 314 314 313 313 316 316 315 316 314 314 316
339 336 338 335 336 337 337 331 327 326 324 325 326 326 322 321 317 315 316 316 317 317 318 318 316 316 316 315 314 314 314 313 313 313 313 312 313 313 315 314 313 315 315 316
337 339 335 340 339 336 335 334 333 329 322 323 326 325 321 318 315 318 318 317 317 318 317 315 314 313 313 313 314 312 311 311 310 310 309 311 311 313 313 314 312 310 312 314
338 338 342 343 340 338 343 334 330 322 327 329 327 323 317 316 316 319 317 317 317 315 314 314 313 312 313 312 311 310 310 310 308 309 309 308 310 311 312 313 313 311 311 314
342 343 342 339 342 340 335 330 325 326 336 326 321 317 316 317 318 319 318 317 314 314 314 312 311 311 311 310 308 308 308 308 307 308 308 308 310 310 312 313 313 314 315 317
338 341 334 337 339 341 329 327 331 331 324 319 317 316 317 318 317 317 317 316 313 313 312 310 311 311 309 309 308 308 308 307 307 306 308 308 308 310 310 312 312 314 314 313
344 346 340 337 339 333 328 329 324 321 319 317 317 318 317 317 317 316 315 315 314 312 310 311 310 310 308 308 307 306 306 306 306 306 307 307 308 307 309 309 311 312 312 312
341 335 333 335 334 330 325 322 320 318 318 317 316 316 317 319 316 314 313 314 313 310 311 311 310 308 308 307 306 305 305 305 305 306 306 307 306 306 307 309 308 310 312 310
332 336 333 332 333 327 324 322 320 318 317 316 317 317 316 316 313 312 313 313 311 310 310 310 309 308 307 306 305 304 305 305 305 306 305 305 305 305 306 307 308 309 311 308
333 333 326 331 329 329 325 323 320 317 317 317 316 316 314 311 312 311 313 311 310 310 310 309 308 307 307 306 305 304 304 306 306 306 305 304 304 304 306 307 308 308 310 310
Wind_Speed
16 11 11 8 17 20 13 11 12 14 10 6 5 16 15 13 8 6 11 15 14 10 18 20 21 22 21 21 18 16 17 17 14 10 8 9 10 10 10 4 2 4 7 10
10 13 9 8 20 8 19 12 5 15 22 6 9 9 8 13 11 6 7 9 7 8 5 13 20 22 26 27 19 19 20 18 13 12 14 8 8 11 10 10 9 8 10 8
13 13 6 9 8 16 13 25 7 13 16 15 4 8 11 11 11 8 7 11 8 5 7 9 15 20 17 17 19 22 18 20 17 18 10 12 12 13 7 8 11 10 10 11
10 15 2 10 4 6 11 14 18 20 18 15 7 7 4 5 8 5 8 4 6 3 7 8 5 10 8 15 15 15 13 15 22 11 13 12 9 15 13 9 12 9 13 14
14 15 10 12 12 10 15 16 18 19 14 19 1 7 1 3 7 7 7 9 9 8 9 5 7 5 4 5 5 14 17 5 15 17 23 16 16 9 9 9 11 13 13 11
19 19 5 6 18 15 11 14 19 21 12 11 9 8 9 5 8 9 6 9 10 11 13 12 10 6 5 6 5 6 8 9 13 17 22 19 18 11 12 12 12 13 9 9
18 15 7 7 13 24 4 15 13 13 10 7 15 4 6 9 9 9 7 6 8 12 7 3 8 12 11 5 5 6 5 4 10 13 18 20 20 16 16 14 13 8 7 5
13 14 5 14 17 9 14 13 9 17 12 15 7 7 1 10 7 7 4 8 6 12 13 12 13 13 14 18 18 19 20 21 16 10 15 23 9 9 12 14 9 10 9 9
10 12 10 10 6 9 11 10 15 10 15 16 5 7 9 7 6 6 5 5 13 9 7 6 9 9 10 11 15 9 14 15 16 17 20 17 20 16 14 17 8 12 11 13
7 14 7 12 8 14 3 6 8 5 10 13 2 6 8 10 5 2 6 8 4 4 7 7 10 14 15 16 16 16 17 19 21 15 11 13 10 13 14 17 12 13 13 15
9 5 12 7 6 6 8 10 9 7 9 10 6 2 11 7 5 6 10 8 8 8 9 11 12 13 12 13 14 14 14 19 19 16 17 16 16 15 15 15 12 14 15 17
5 4 8 15 10 8 5 6 6 5 9 11 10 5 8 10 10 7 6 1 8 8 9 9 12 13 14 16 17 18 18 18 21 23 19 17 20 20 18 18 17 18 16 15
9 4 8 11 8 5 5 4 3 6 6 11 5 3 8 10 6 4 5 7 7 8 6 7 10 11 13 14 16 19 19 20 23 27 27 20 17 21 22 20 16 15 18 18
5 5 8 9 9 4 6 3 4 3 7 10 8 12 7 3 2 1 3 3 7 7 6 7 8 10 12 8 11 14 15 16 18 20 25 23 23 22 25 19 13 15 17 17
5 7 7 10 7 7 7 5 5 6 9 5 12 7 10 4 5 4 6 6 7 7 9 10 11 13 14 12 11 13 14 16 16 21 20 25 20 20 27 13 12 16 17 20
2 6 5 11 8 5 9 7 3 8 3 8 9 4 7 3 1 5 6 6 8 10 11 12 12 16 16 16 17 15 13 16 19 22 20 22 21 19 22 16 13 17 20 22
2 5 7 8 5 7 9 7 7 4 5 4 6 6 7 7 9 7 3 4 8 10 12 12 12 13 12 13 15 15 16 18 16 18 17 24 21 21 22 15 15 16 20 19
4 3 7 8 10 10 6 5 6 4 4 5 4 4 6 4 4 4 4 5 8 11 13 13 18 19 15 15 16 16 18 21 21 22 18 22 21 24 21 12 11 13 18 12
4 6 6 5 11 6 7 3 1 5 7 8 4 7 6 5 7 1 7 8 10 12 15 17 18 19 16 16 17 17 17 21 18 19 21 20 22 23 22 14 8 16 19 20
11 6 5 14 4 9 9 5 2 2 2 10 8 5 5 6 4 7 8 8 13 15 15 15 17 17 16 16 17 18 17 18 21 24 23 23 17 22 23 20 12 15 16 20
4 4 8 3 7 6 5 5 4 5 5 5 5 4 4 3 6 8 9 12 15 14 14 15 15 14 11 13 14 17 17 20 20 24 27 28 20 19 21 21 20 14 14 13
6 6 9 5 7 2 1 5 6 5 3 3 3 3 3 6 7 8 10 10 12 13 14 14 13 13 13 16 17 15 15 19 21 21 22 24 24 22 18 20 23 18 8 10
3 10 7 5 4 4 9 8 6 3 3 3 3 6 4 5 8 10 9 8 10 12 13 12 14 15 16 16 16 17 18 20 22 24 23 25 20 21 19 18 21 19 7 6
5 2 2 7 6 4 6 5 3 2 4 3 2 1 5 7 8 8 7 7 9 11 12 14 14 12 13 12 15 16 17 19 20 20 22 22 21 22 18 17 15 20 8 8
7 3 4 7 8 3 5 4 4 4 2 2 2 6 4 6 7 7 6 7 8 10 11 13 11 11 13 12 14 15 14 15 18 17 16 20 22 22 21 16 8 14 8 7
8 4 6 4 5 3 4 4 3 0 0 5 7 7 10 8 6 7 6 7 8 9 11 12 8 10 15 13 12 12 15 16 17 17 16 17 20 22 21 22 15 9 5 5
Wind_Direction
248 156 181 316 257 248 310 8 50 330 269 260 126 162 159 150 170 199 176 180 194 203 201 200 208 221 216 238 228 218 233 242 235 248 291 320 335 309 303 299 342 306 304 291
256 264 160 225 260 269 2 358 113 231 249 231 293 148 163 144 176 186 188 180 206 200 171 192 208 210 216 222 217 221 246 246 233 241 258 250 278 285 283 301 299 289 290 290
275 286 184 260 340 33 34 292 284 290 313 231 136 112 130 204 173 184 150 144 190 209 172 219 204 211 240 236 232 225 229 244 237 236 254 272 264 309 244 275 279 278 288 288
308 294 298 281 357 7 265 316 335 321 313 305 174 298 45 11 121 106 96 172 195 43 95 127 102 44 307 275 288 274 255 282 268 276 272 266 256 274 270 276 280 278 289 284
280 289 318 326 345 345 320 338 307 289 286 292 180 45 43 256 141 141 111 90 93 114 122 129 117 121 127 306 238 208 217 231 167 221 244 244 256 293 294 258 285 294 289 263
286 287 264 2 340 302 313 304 300 288 253 276 146 144 190 188 159 121 102 77 52 35 66 56 125 158 240 319 315 288 174 187 207 245 237 229 249 271 273 283 290 291 294 266
253 299 330 37 335 294 293 305 315 320 315 284 177 162 182 156 87 96 105 91 82 78 69 60 48 354 30 47 310 306 269 250 254 243 231 235 226 239 258 267 273 270 287 308
303 311 350 292 242 306 303 312 314 307 309 321 284 84 146 39 125 120 123 96 73 56 47 23 14 4 2 354 354 0 360 357 331 301 279 280 206 266 277 280 265 286 290 281
313 294 235 240 300 309 327 305 339 304 289 278 108 102 174 161 143 169 110 81 74 44 41 29 347 348 332 334 331 351 353 339 330 329 328 313 266 251 243 269 254 278 284 273
296 298 300 166 220 279 199 314 312 302 297 297 189 141 158 206 167 106 93 69 54 35 345 359 351 10 10 7 348 2 354 345 338 328 340 334 302 271 266 273 250 225 252 273
309 315 299 268 306 334 321 319 330 339 290 298 348 98 154 140 100 75 65 42 15 344 356 8 6 354 349 340 337 344 354 341 337 5 356 344 341 290 277 271 257 245 258 244
68 327 295 294 84 37 346 335 344 317 315 322 306 91 90 85 71 34 75 21 350 337 358 9 351 344 360 345 343 352 354 340 345 346 337 348 333 327 299 279 274 268 264 263
356 331 315 287 58 0 293 43 312 301 280 275 345 305 158 87 73 63 357 346 317 20 346 351 348 347 356 351 360 349 347 359 355 344 343 332 332 329 310 284 278 270 267 277
324 300 270 285 355 2 260 169 305 270 278 343 51 131 124 117 53 213 339 320 351 340 0 341 336 338 337 347 352 338 352 345 340 334 337 337 325 326 319 286 259 262 274 261
4 287 323 294 337 318 327 310 322 343 325 326 333 348 136 142 4 7 30 351 339 331 354 348 331 328 335 2 353 335 338 339 343 338 323 329 329 319 328 302 263 267 269 259
48 296 319 300 256 269 299 289 241 264 245 320 325 58 31 338 312 27 1 345 344 354 343 321 335 343 353 352 5 18 353 348 326 317 331 324 342 331 321 299 277 265 270 273
286 327 302 313 1 300 270 287 195 301 321 354 321 29 358 4 4 351 317 330 359 342 323 339 342 359 1 357 350 340 326 336 325 329 325 336 342 337 335 331 306 275 271 280
265 273 289 299 249 274 15 68 57 50 318 316 285 81 13 19 313 306 28 0 340 330 356 360 354 358 6 356 347 349 351 342 347 338 341 344 350 344 338 324 321 309 312 294
220 278 296 269 283 250 190 151 57 46 333 324 281 55 3 14 301 310 38 2 348 12 5 360 351 339 357 360 14 2 352 355 352 339 336 333 347 337 336 327 331 321 308 316
286 226 51 305 263 286 53 49 55 319 42 51 50 4 9 7 295 88 357 357 12 11 2 356 340 344 6 23 10 356 352 348 346 339 335 330 337 340 335 335 305 294 297 298
185 235 224 172 262 69 9 53 309 294 75 69 31 7 15 333 12 346 337 16 9 7 353 348 351 348 54 13 354 348 358 359 346 335 345 343 336 339 337 342 330 311 286 288
325 345 300 342 341 42 327 283 357 93 119 35 68 49 25 12 334 342 3 11 4 353 354 344 342 16 34 11 29 19 359 345 341 334 332 331 335 336 336 342 342 337 307 334
357 1 330 9 15 103 50 75 71 50 64 89 40 57 9 327 359 357 4 1 5 354 343 341 356 23 13 13 11 354 358 342 340 339 340 339 332 343 338 343 350 344 6 354
107 157 353 290 128 120 109 105 102 23 88 94 73 267 47 23 2 353 351 2 6 347 341 356 20 13 6 359 3 358 345 346 344 344 341 334 345 342 336 334 349 344 345 14
341 170 25 341 81 87 172 169 150 151 134 264 260 72 37 20 9 351 344 9 359 343 349 358 18 25 346 1 357 333 336 338 337 339 352 352 342 345 323 329 334 331 340 14
346 349 354 7 20 296 71 162 142 216 294 48 32 18 28 11 1 349 349 354 360 331 347 354 33 358 335 347 338 338 339 332 330 338 348 345 347 345 344 334 345 349 352 356